Yakima, WA

10:47 PM PDT on April 25, 2017 (GMT -0700)
Yakima Air Term-McAllister

Weather History for KYKM - April, 2013

Change the Weather History Date:

Friday, April 5, 2013

  Actual Average Record
Temperature  
Mean Temperature 60 °F 47 °F  
Max Temperature 68 °F 61 °F 78 °F (1952)
Min Temperature 52 °F 33 °F 22 °F (1975)
Degree Days  
Heating Degree Days 5 18  
Month to date heating degree days 40 90  
Since 1 July heating degree days 4598 5294  
Cooling Degree Days 0 0  
Month to date cooling degree days 0 0  
Year to date cooling degree days 0 0  
Growing Degree Days 10 (Base 50)    
Moisture  
Dew Point 41 °F    
Average Humidity 51    
Maximum Humidity 66    
Minimum Humidity 35    
Precipitation  
Precipitation 0.00 in 0.02 in 0.15 in (1963)
Month to date precipitation 0.10 0.08  
Year to date precipitation 1.00 2.62  
Snow  
Snow 0.00 in 0.00 in 0.00 in (2002)
Month to date snowfall 0.0 0.0  
Year to date snowfall 1.1 8.6  
Since 1 July snowfall 15.3 21.6  
Snow Depth 0.00 in    
Sea Level Pressure  
Sea Level Pressure 29.81 in    
Wind  
Wind Speed 15 mph (SSW)    
Max Wind Speed 25 mph    
Max Gust Speed 35 mph    
Visibility 10 miles    
Events      
T = Trace of Precipitation, MM = Missing Value Source: NWS Daily Summary

Daily Weather History Graph

Daily Weather History Graph

Search for Another Location

Airport or City:

Trip Planner

Search our weather history database for the weather conditions in past years. The results will help you decide how hot, cold, wet, or windy it might be!

Date:

Astronomy

Apr. 05, 2013 Rise Set
Actual Time 6:33 AM PDT 7:37 PM PDT
Civil Twilight 6:02 AM PDT 8:07 PM PDT
Nautical Twilight 5:25 AM PDT 8:45 PM PDT
Astronomical Twilight 4:46 AM PDT 9:24 PM PDT
Moon 4:00 AM PDT (4/5) 2:51 PM PDT (4/5)
Length of Visible Light 14h 05m
Length of Day
13h 03m
Waning Crescent, 22% of the Moon is Illuminated
Apr 5
Waning Crescent
Apr 10
New
Apr 18
First Quarter
Apr 25
Full
May 2
Last Quarter

Hourly Weather History & Observations

Time (PDT) Temp. Dew Point Humidity Pressure Visibility Wind Dir Wind Speed Gust Speed Precip Events Conditions
12:53 AM 55.9 °F 42.1 °F 60% 29.77 in 10.0 mi South 15.0 mph - N/A   Partly Cloudy
1:53 AM 55.0 °F 41.0 °F 59% 29.77 in 10.0 mi SSW 21.9 mph 27.6 mph N/A   Clear
2:53 AM 54.0 °F 41.0 °F 62% 29.77 in 10.0 mi SSW 17.3 mph 24.2 mph N/A   Clear
3:53 AM 54.0 °F 41.0 °F 62% 29.77 in 10.0 mi South 17.3 mph 27.6 mph N/A   Mostly Cloudy
4:53 AM 54.0 °F 42.1 °F 64% 29.77 in 10.0 mi South 16.1 mph 23.0 mph N/A   Partly Cloudy
5:53 AM 53.1 °F 42.1 °F 66% 29.77 in 10.0 mi South 17.3 mph - N/A   Clear
6:53 AM 53.1 °F 41.0 °F 64% 29.77 in 10.0 mi South 16.1 mph - N/A   Clear
7:53 AM 54.0 °F 41.0 °F 62% 29.79 in 10.0 mi NW 4.6 mph 18.4 mph N/A   Scattered Clouds
8:53 AM 55.9 °F 42.1 °F 60% 29.80 in 10.0 mi WNW 6.9 mph - N/A   Scattered Clouds
9:53 AM 60.1 °F 43.0 °F 53% 29.81 in 10.0 mi Variable 3.5 mph - N/A   Scattered Clouds
10:53 AM 63.0 °F 42.1 °F 46% 29.82 in 10.0 mi SSW 18.4 mph 27.6 mph N/A   Scattered Clouds
11:53 AM 64.0 °F 43.0 °F 46% 29.83 in 10.0 mi South 17.3 mph 29.9 mph N/A   Scattered Clouds
12:53 PM 68.0 °F 39.9 °F 36% 29.81 in 10.0 mi SW 17.3 mph 31.1 mph N/A   Scattered Clouds
1:53 PM 64.9 °F 39.9 °F 40% 29.83 in 10.0 mi SSW 19.6 mph 27.6 mph N/A   Scattered Clouds
2:53 PM 64.0 °F 39.9 °F 41% 29.83 in 10.0 mi SSW 16.1 mph - N/A   Mostly Cloudy
3:53 PM 63.0 °F 39.9 °F 43% 29.84 in 10.0 mi SSW 13.8 mph - N/A   Mostly Cloudy
4:53 PM 60.1 °F 37.9 °F 44% 29.84 in 10.0 mi SSW 18.4 mph 25.3 mph N/A   Mostly Cloudy
5:53 PM 57.9 °F 39.9 °F 51% 29.85 in 10.0 mi SSW 15.0 mph - N/A   Overcast
6:53 PM 57.0 °F 39.9 °F 53% 29.84 in 10.0 mi South 15.0 mph - N/A   Overcast
7:53 PM 55.9 °F 41.0 °F 57% 29.83 in 10.0 mi SSW 16.1 mph 25.3 mph N/A   Overcast
8:53 PM 55.0 °F 39.0 °F 55% 29.83 in 10.0 mi SSW 18.4 mph 24.2 mph N/A   Mostly Cloudy
9:53 PM 53.1 °F 39.9 °F 61% 29.84 in 10.0 mi South 17.3 mph - N/A   Scattered Clouds
10:53 PM 53.1 °F 39.0 °F 59% 29.81 in 10.0 mi South 19.6 mph 31.1 mph N/A   Clear
11:53 PM 53.1 °F 39.0 °F 59% 29.81 in 10.0 mi South 16.1 mph 27.6 mph N/A   Mostly Cloudy